Regional Weather Roundup
Issued by NWS Sterling, VA

Home | Current Version | Previous Version | Text Only | Print | Product List | Glossary On
Versions: 1 2 3 4 5 6 7 8 9 10 11 12 13 14 15 16 17 18 19 20 21 22 23 24 25 26 27 28 29 30 31 32 33 34 35 36 37 38 39 40 41 42 43 44 45 46 47 48 49
000
ASUS41 KLWX 131510
RWRLWX

REGIONAL WEATHER ROUNDUP
NATIONAL WEATHER SERVICE BALTIMORE MD/WASHINGTON DC
1000 AM EST SAT FEB 13 2016

Note: "FAIR" indicates few or no clouds below 12,000 feet
with no significant weather and/or obstructions to visibility.
 TC=TEMPERATURE CELSIUS

 * =Non NWS site. Station does not report precipitation (e.g. rain,
    snow, etc.), thunder, or fog.

DCZ001-MDZ009-015-VAZ040>042-051-053>054-131600-
WASHINGTON METRO

CITY           SKY/WX    TMP DP  RH WIND       PRES   REMARKS
WASHINGTON NAT PTSUNNY   22  -1  36 NW28G39   30.26R WCI   4
DULLES         PTSUNNY   19  -1  41 NW28G40   30.24R WCI   1
ANDREWS AFB    MOSUNNY   21   3  45 NW20G33   30.22R WCI   6
FT BELVOIR     FAIR      22  -4  32 NW21G35   30.26R WCI   6
QUANTICO       FAIR      24   0  35 N25G38    30.29R WCI   8
COLLEGE PARK*  PTSUNNY   21  -2  35 W12G25    30.25R WCI   9
LEESBURG*      CLOUDY    19   7  58 NW20G26   30.26R WCI   4
GAITHERSBURG*  MOSUNNY   16  -2  45 NW8G24    30.26R WCI   5

$$

MDZ006>007-011-014-131600-
BALTIMORE METRO

CITY           SKY/WX    TMP DP  RH WIND       PRES   REMARKS
BWI AIRPORT    MOSUNNY   20  -1  40 W21G32    30.22R WCI   4
MD SCIENCE CTR   N/A     20  -3  36 MISG      30.23R
MARTIN STATE   MOSUNNY   21   1  42 W24G32    30.21R WCI   4
ANNAPOLIS      LGT SNOW  20   9  62 NW20G35   30.22R WCI   4
FORT MEADE*    MOSUNNY   21   0  39 W22G32    30.26R WCI   5

$$

MDZ012-015-019>023-131600-
MARYLAND EASTERN SHORE

CITY           SKY/WX    TMP DP  RH WIND       PRES   REMARKS
OCEAN CITY     SUNNY     25   3  38 NW24G36   30.15R WCI   9
SALISBURY      PTSUNNY   26   3  37 NW25G37   30.17R WCI  11
BAY BRIDGE AP*   N/A     23   5  46 NW26G36   30.22R WCI   6
CAMBRIDGE*     MOSUNNY   23   5  46 NW16G24   30.20R WCI  10
EASTON*        MOSUNNY   25   3  39 NW23G30   30.22R WCI  10

$$

MDZ017>025-131600-
SOUTHERN MARYLAND

CITY           SKY/WX    TMP DP  RH WIND       PRES   REMARKS
PATUXENT RIVER PTSUNNY   23   9  55 N20G32    30.22R WCI   8
ST INIGOES     MOSUNNY   25   5  42 W17G31    30.21R WCI  12
LEONARDTOWN*   PTSUNNY   25   5  42 NW9G20    30.23R WCI  15

$$

MDZ003>005-131600-
NORTH CENTRAL MARYLAND

CITY           SKY/WX    TMP DP  RH WIND       PRES   REMARKS
FREDERICK*     MOSUNNY   18   1  49 NW15G23   30.29R WCI   3
HAGERSTOWN APT CLOUDY    15  -1  49 NW22G31   30.21R WCI  -3
WESTMINSTER*   SNOW      14   5  67 NW22G33   30.15S VSB 1/2 WCI  -4

$$

MDZ501>502-131600-
WESTERN MARYLAND

CITY           SKY/WX    TMP DP  RH WIND       PRES   REMARKS
OAKLAND*       MOSUNNY    1  -8  66 W13G21    30.07R WCI -16
CUMBERLAND*    MOSUNNY   14  -2  48 NW12G24   30.33R WCI   0

$$

VAZ025>031-131600-
SHENANDOAH VALLEY

CITY           SKY/WX    TMP DP  RH WIND       PRES   REMARKS
WINCHESTER*    CLOUDY    18   0  45 NW18G30   30.25S WCI   2
FRONT ROYAL*   CLOUDY    18   0  45 NW14G23   30.23R WCI   4
LURAY*         CLOUDY    18   0  45 W12G21    30.23R WCI   5
NEW MARKET*    CLOUDY    19  -3  39 W13G22    30.23R WCI   5
STAUNTON*      FAIR      22  -3  32 NW13G28   30.24R WCI  10
WAYNESBORO*    FAIR      17  -9  30 NW18G28   30.19R WCI   1

$$

WVZ021-048>050-054>055-131600-
EASTERN WEST VIRGINIA PANHANDLE

CITY           SKY/WX    TMP DP  RH WIND       PRES   REMARKS
MARTINSBURG    CLOUDY    15  -5  40 NW18G29   30.26R WCI  -2
PETERSBURG*    CLOUDY    14  -3  47 NW14G24   30.29R WCI  -1

$$

VAZ036>039-050-131600-
CENTRAL FOOTHILLS

CITY           SKY/WX    TMP DP  RH WIND       PRES   REMARKS
CHARLOTTESVILL PTSUNNY   22  -4  32 W12G21    30.25R WCI  10
CULPEPER*      CLOUDY    21   6  53 NW9G16    30.27R WCI  10
ORANGE*        FAIR      25   0  33 W9        30.28R WCI  15
GORDONSVILLE*  FAIR      23  -3  32 NW10G22   30.25R WCI  12
WARRENTON*     PTSUNNY   25   8  47 NW13G23   30.25R WCI  14

$$

VAZ055>057-131600-
NORTH AND CENTRAL PIEDMONT

CITY           SKY/WX    TMP DP  RH WIND       PRES   REMARKS
FREDERICKSBRG* FAIR      24   3  40 NW16G24   30.26S WCI  11
STAFFORD*      FAIR      23   3  42 NW16G23   30.31R WCI  10

$$

NCZ024-NYZ072-PAZ021-071-VAZ022-071-131600-
OTHER REGIONAL OBSERVATIONS

CITY           SKY/WX    TMP DP  RH WIND       PRES   REMARKS
NEW YORK CITY  CLOUDY    21  -2  36 NW14G22   30.03R WCI   8
PHILADELPHIA   PTSUNNY   23  -6  28 NW20G25   30.13R WCI   8
PITTSBURGH     MOSUNNY    8  -2  63 W24G31    30.29R WCI -13
ROANOKE        PTSUNNY   20  -1  40 W21G28    30.29R WCI   4
RICHMOND       FAIR      25  -3  29 W21G28    30.25R WCI  11
RALEIGH        MOSUNNY   29   2  31 VRB6      30.29R

$$

ANZ530>537-131600-
MARINE OBSERVATIONS

STATION/POSITION TIME  TEMP    WIND        PRES
                       AIR SEA DIR/SP/G
                 (UTC) (F)     (DEG/KT/KT) (MB)
THOMAS PT LIGHT  1500   20 36  320/ 27/ 31 1023.2R
BALT KEY BRIDGE  1400   21     300/ 24/ 29 1021.8R
COVE POINT       1400   20     350/ 23/ 29 1023.5R
LEWISETTA        1400   24 35  330/ 23/ 35 1023.0R
SOLOMONS ISLAND  1400   23 38  290/ 11/ 20   N/A
PINEY POINT      1400          330/ 27/ 32   N/A

$$





USA.gov is the U.S. government's official web portal to all federal, state and local government web resources and services.